RH
88 86 81 79 79 74 74 78 74 68 67 73 76 80 79 77 72 73 72 76 78 76 77 83 83 82 85 88 89 86 89 91 91 82 86 88 93 88 82 82 79 78 76
85 86 86 81 78 79 74 72 77 78 71 74 76 74 78 78 74 72 70 63 73 73 74 79 79 80 87 85 90 88 90 89 93 90 84 90 97 94 88 89 80 70 79
80 84 87 85 79 75 77 73 72 72 79 76 74 77 74 74 73 72 71 71 69 73 75 79 78 83 86 86 90 90 89 90 92 94 88 86 94 98 99 96 90 84 76
76 78 85 86 84 77 71 77 75 77 73 77 76 75 76 74 70 68 67 70 70 72 74 74 72 71 78 81 86 88 88 93 93 96 94 93 97 98 97 96 99 94 89
61 71 79 82 81 81 80 81 79 78 76 74 75 75 73 70 68 71 68 71 72 73 72 69 70 72 79 76 78 84 89 93 93 95 96 95 99 100 99 96 97 94 99
60 59 62 73 79 82 81 81 80 79 76 75 75 75 76 70 76 83 76 70 68 71 74 72 70 81 82 85 88 88 86 93 92 94 92 95 92 95 96 99 99 99 100
62 58 58 63 71 76 78 78 78 80 79 78 76 75 74 74 85 85 87 71 74 74 74 75 77 78 90 80 95 100 99 98 99 96 97 95 98 98 98 99 99 99 100
81 78 74 73 64 67 72 74 77 78 81 79 79 77 75 72 87 88 88 77 71 71 73 75 80 80 88 93 99 99 98 98 98 98 99 100 100 99 97 98 100 100 100
83 86 87 84 85 74 74 73 72 75 77 78 77 82 84 79 92 89 91 83 81 78 97 98 97 97 99 100 98 98 98 99 98 97 98 98 98 98 98 93 99 98 98
82 81 81 83 86 91 96 94 85 82 78 80 86 96 100 93 100 100 99 94 97 100 99 99 99 99 99 97 98 96 98 98 97 97 97 96 93 95 97 98 98 98 98
77 79 80 80 82 87 92 93 96 98 97 99 99 98 98 98 99 99 100 99 98 99 99 99 99 98 97 96 93 93 95 97 97 95 95 96 97 96 94 95 97 97 97
78 78 79 80 79 82 89 93 94 96 98 98 98 98 98 98 98 97 96 96 95 96 98 98 98 96 95 95 96 96 95 96 97 97 96 96 96 96 96 94 86 80 73
82 84 84 79 80 82 88 90 93 93 96 96 95 96 97 96 95 95 94 94 93 95 94 97 97 94 93 95 96 97 97 97 97 96 96 96 96 96 95 96 96 87 78
87 88 85 86 87 85 84 87 92 94 94 93 93 95 95 95 96 96 94 94 93 93 95 95 95 96 96 96 96 95 95 95 95 95 96 96 96 96 95 90 88 82 81
85 87 89 86 86 89 93 93 94 95 88 92 95 95 94 96 98 96 94 95 95 97 96 96 96 96 94 95 96 95 95 94 94 96 95 94 93 91 88 79 77 81 86
88 89 92 90 87 84 84 89 94 94 93 93 92 89 96 97 99 99 99 97 98 97 95 96 97 96 95 95 95 95 95 95 95 94 93 89 87 84 77 74 75 82 87
94 94 92 91 91 88 85 83 91 87 88 92 95 94 94 96 96 96 93 93 94 89 93 95 96 96 96 93 94 93 94 93 85 85 87 90 89 86 85 82 82 83 84
92 95 95 95 94 93 92 92 90 90 93 95 93 94 94 94 94 92 92 86 92 92 93 94 95 95 93 91 89 90 88 89 88 89 90 89 91 88 90 88 86 94 87
91 94 95 96 95 95 95 93 93 94 93 94 91 90 93 91 91 92 91 94 94 94 93 92 94 94 93 89 90 90 90 89 89 89 90 90 94 89 90 89 91 92 92
92 92 93 95 95 95 95 94 94 94 94 94 94 95 94 88 93 95 94 95 94 94 91 88 86 87 90 90 92 92 91 91 91 92 96 95 95 95 96 96 97 99 94
93 93 93 93 94 94 93 94 94 93 92 93 95 95 90 90 93 93 91 93 94 93 94 92 93 93 92 92 89 92 92 95 95 95 96 96 100 98 96 98 98 96 88
94 94 92 93 92 94 94 92 92 92 92 92 92 90 91 93 93 93 94 96 96 93 93 94 92 91 94 96 94 96 98 98 97 98 98 98 98 98 98 98 99 100 97
84 84 85 88 86 85 88 88 92 92 93 95 95 94 94 97 96 95 96 97 95 96 95 94 96 92 93 92 93 98 97 100 100 100 100 100 99 98 100 100 99 98 99
87 90 86 88 90 90 93 95 93 92 93 95 96 96 96 97 98 100 98 99 95 97 99 98 96 93 91 96 98 99 97 99 99 99 100 100 100 99 100 96 96 99 99
91 92 93 94 95 96 95 95 95 96 96 97 96 97 95 95 96 98 97 95 93 97 97 96 96 96 93 99 96 94 96 98 97 97 99 99 100 100 100 99 99 96 98
88 90 93 93 94 95 96 95 96 97 98 96 96 97 97 95 98 96 98 96 96 96 97 98 94 95 98 97 93 96 98 100 99 96 100 100 100 100 100 100 98 99 97
Wind_Speed
14 13 13 13 13 13 12 14 15 15 15 15 16 14 15 15 14 13 13 12 13 13 13 13 14 11 7 8 9 9 10 10 13 12 8 8 8 12 9 10 11 12 9
14 14 14 13 14 14 13 14 14 14 16 16 15 17 16 16 16 18 18 16 16 17 16 14 15 10 13 13 10 13 12 12 11 17 13 8 8 8 10 8 7 7 8
16 15 14 15 17 16 15 15 15 17 14 16 17 17 18 18 18 18 17 17 18 18 16 15 16 13 15 13 13 13 12 10 10 12 14 8 8 3 5 4 9 10 8
17 17 17 16 16 17 16 15 16 14 17 16 16 16 17 18 19 19 19 20 20 18 16 16 18 18 18 17 14 15 14 12 12 11 12 12 7 4 7 8 6 7 8
15 17 18 16 16 15 17 16 14 15 16 17 17 17 18 18 15 20 20 19 19 19 18 18 19 19 20 20 12 14 14 13 12 12 12 12 6 4 8 6 10 6 2
15 15 13 15 17 17 16 17 17 17 17 16 17 18 18 15 19 20 18 17 18 19 19 19 18 17 20 21 22 20 19 18 18 14 13 15 15 11 6 4 3 4 3
12 13 13 13 15 17 17 18 18 18 16 18 18 16 18 18 17 19 20 17 16 18 18 16 14 12 13 14 13 9 10 8 2 10 14 12 4 4 6 4 3 3 2
14 12 8 7 11 12 15 17 17 15 17 17 17 18 16 15 14 17 18 17 18 18 16 16 15 14 12 10 8 8 7 6 2 2 5 5 5 6 5 4 4 6 4
14 12 13 13 15 8 10 14 16 14 14 15 13 13 15 17 14 18 13 13 15 16 1 3 4 5 9 18 12 12 10 9 14 22 23 22 20 18 11 7 5 5 2
15 13 12 12 14 11 9 12 6 9 13 10 7 2 7 4 3 2 9 6 6 5 3 4 4 5 12 14 13 14 12 8 8 10 10 14 15 15 17 9 4 6 2
14 10 10 12 12 13 11 10 12 11 3 6 8 9 10 11 8 10 2 3 5 6 5 4 5 12 13 15 15 10 12 12 10 10 8 7 7 8 7 7 6 4 2
13 14 14 12 9 9 11 11 13 12 11 10 9 8 8 11 18 16 16 16 14 11 9 8 10 24 24 24 18 23 17 14 8 8 8 7 7 8 6 6 6 4 4
11 12 12 12 10 10 11 11 10 10 9 9 9 9 9 9 10 22 24 23 23 17 13 20 26 26 23 22 23 20 11 8 8 8 7 8 6 5 3 3 6 5 3
11 11 11 12 14 14 10 10 8 8 9 9 8 9 8 8 9 7 7 12 17 16 16 15 18 17 16 14 14 12 9 9 8 8 7 6 5 5 5 6 5 5 3
10 9 10 9 11 13 16 12 11 13 8 10 10 9 8 10 9 12 10 9 10 12 10 10 8 9 8 9 10 10 8 8 9 7 6 5 5 6 6 5 4 3 2
9 8 8 7 7 8 10 13 29 27 28 26 23 17 12 17 20 16 15 20 20 13 9 10 9 7 9 9 9 7 6 8 8 7 6 6 6 5 5 5 4 4 4
10 8 7 8 7 7 8 9 11 17 31 31 27 26 26 23 24 25 23 23 24 17 10 8 9 8 9 9 8 7 8 7 7 5 5 5 5 5 5 5 5 5 5
11 13 8 7 7 8 8 8 8 9 10 10 22 21 26 26 24 21 19 17 12 14 9 8 8 8 8 8 7 6 6 6 7 7 6 6 5 5 5 6 6 4 5
10 9 9 9 9 9 8 9 8 8 9 8 8 12 15 25 26 25 22 10 9 8 8 9 7 8 8 8 6 6 7 7 7 6 6 6 5 5 5 5 4 5 4
11 14 12 8 8 8 8 8 8 9 9 9 8 8 7 9 9 10 10 9 9 7 8 8 8 7 7 7 7 5 6 6 6 6 5 5 5 4 4 4 3 3 4
7 8 11 8 7 7 7 7 7 8 8 8 8 9 12 9 9 9 8 8 8 8 8 7 7 7 6 7 6 6 7 7 7 6 5 4 4 3 3 2 2 3 4
6 7 7 8 7 8 8 7 7 8 8 7 7 9 12 8 8 8 8 7 6 7 6 6 6 6 6 6 7 6 6 6 5 5 4 4 4 4 3 2 3 2 3
7 8 8 7 8 9 8 8 7 7 7 6 6 6 7 6 6 6 7 6 6 4 5 5 4 4 4 5 5 5 5 4 2 2 3 3 3 3 3 3 3 4 3
8 8 8 7 7 7 8 7 7 9 8 7 6 6 6 5 5 5 4 3 4 4 3 2 3 5 4 4 5 4 3 2 1 1 2 2 2 4 3 4 4 4 4
7 8 8 7 7 7 7 7 7 6 6 6 6 5 6 5 6 5 4 4 4 5 5 5 4 3 4 6 5 3 2 4 3 4 3 4 3 5 4 4 4 5 4
7 7 6 6 6 6 5 5 5 5 4 4 4 4 3 4 5 5 3 5 5 5 5 3 4 5 5 2 2 2 5 6 5 5 3 2 3 4 3 3 6 4 5
Wind_Direction
187 187 191 195 197 205 193 193 199 203 200 194 195 194 198 204 207 209 213 206 208 212 214 209 212 211 211 221 224 229 231 225 242 257 242 235 222 225 229 221 226 226 222
188 188 196 197 200 202 200 196 197 202 204 199 199 205 204 205 206 208 213 213 213 217 217 216 221 213 220 222 219 228 229 228 232 247 247 239 231 232 229 211 218 219 205
185 189 195 203 208 210 208 207 205 208 202 206 207 207 210 213 216 216 216 218 222 220 216 211 219 210 220 223 221 227 232 236 235 246 255 249 226 195 213 227 212 223 218
180 191 196 200 204 212 215 216 210 206 210 206 208 209 212 216 220 222 220 221 223 226 221 222 227 226 226 228 226 226 228 228 234 240 253 255 232 213 232 227 220 215 217
192 188 198 198 197 202 209 213 214 213 214 218 218 220 220 220 218 219 220 222 225 229 229 229 230 227 222 224 223 229 226 227 234 242 245 252 219 193 212 219 234 213 90
199 205 191 188 194 199 202 207 212 217 219 219 220 221 223 226 225 216 221 225 227 228 230 231 232 228 229 224 220 222 215 219 229 235 244 247 243 229 210 181 122 143 179
225 207 204 193 194 195 197 203 211 213 212 220 226 224 227 229 218 215 213 227 230 232 232 232 232 230 218 228 225 122 78 68 15 244 246 254 255 171 135 117 116 95 64
30 20 350 314 233 204 197 207 210 207 212 217 219 223 227 235 211 215 210 222 231 234 233 231 229 231 210 191 128 105 85 52 55 104 111 100 95 80 85 84 89 96 82
26 18 7 352 345 245 218 221 216 209 214 219 222 219 220 233 211 225 205 223 233 238 103 4 245 198 175 148 141 129 111 97 85 92 91 84 79 69 70 94 72 93 74
13 12 9 10 4 356 360 347 273 225 225 225 220 88 46 179 51 209 200 220 195 149 100 55 47 133 131 141 139 141 128 127 116 93 85 69 72 60 65 64 78 106 105
3 14 27 23 24 6 357 28 7 343 23 80 82 42 32 19 9 6 314 177 176 129 115 91 70 86 95 102 106 113 116 117 92 80 79 71 69 82 81 70 62 82 86
8 11 11 24 35 27 27 13 38 24 34 30 39 56 54 31 30 39 64 81 87 91 79 65 69 94 86 84 86 91 84 91 83 81 80 66 67 62 46 74 65 54 63
21 20 16 14 18 36 41 37 36 41 47 51 49 38 24 27 54 52 66 67 84 89 80 87 89 82 70 82 72 74 78 73 85 89 71 79 65 65 53 66 55 42 51
27 26 25 30 29 27 35 31 37 59 65 56 56 60 54 39 25 36 48 70 75 75 88 83 81 78 77 76 77 68 68 73 76 75 75 71 72 71 59 42 46 36 14
38 37 35 38 45 52 50 41 44 43 50 97 87 79 70 65 58 68 68 86 91 82 95 81 82 86 82 71 70 67 64 66 67 67 70 65 59 61 58 39 40 23 4
42 38 39 43 48 59 65 66 53 56 59 56 69 85 78 79 88 79 63 69 76 74 66 78 68 63 78 80 82 77 69 69 68 64 62 58 53 43 32 32 25 20 12
48 40 43 48 50 55 60 68 76 56 57 55 55 64 69 75 71 75 72 67 75 78 70 68 79 73 69 64 69 70 72 72 73 69 64 58 55 51 36 33 29 24 14
55 51 50 49 53 61 60 59 61 67 64 55 48 58 58 63 63 63 63 64 56 54 68 62 66 66 69 72 64 68 73 67 69 68 66 55 45 43 34 30 23 20 1
52 55 52 53 46 46 48 50 45 43 65 58 49 45 42 55 56 55 53 57 63 62 58 64 52 57 60 59 59 60 63 62 68 60 51 54 40 41 30 18 3 358 350
44 46 58 58 58 53 49 51 58 57 55 58 54 51 52 58 53 49 46 50 55 51 60 62 57 59 59 58 48 49 58 52 52 57 50 46 30 36 24 359 352 337 334
48 46 48 60 61 71 71 66 65 65 64 58 52 51 56 63 60 55 52 46 47 44 47 56 53 49 51 52 46 44 51 52 49 44 37 28 32 15 348 316 330 336 341
42 53 53 54 50 52 63 62 59 67 65 67 60 50 49 57 57 56 55 51 46 47 45 57 61 49 41 46 47 39 53 53 38 34 27 16 13 0 344 331 346 346 343
50 50 51 52 57 59 56 54 58 62 64 56 58 64 64 59 61 61 55 47 48 30 29 56 61 58 57 49 44 42 59 47 42 76 41 9 359 347 344 337 336 341 335
46 47 52 54 52 58 56 56 59 58 58 57 53 61 67 72 72 66 58 36 39 7 16 73 77 74 48 30 34 59 76 66 60 90 84 38 344 341 343 336 326 313 305
40 44 49 46 46 48 53 51 51 52 53 46 45 49 58 53 66 68 45 35 28 21 24 35 40 44 47 78 93 91 24 23 28 7 9 12 349 323 311 308 307 324 325
50 51 50 50 50 50 53 56 47 48 47 51 45 49 53 55 62 66 30 28 32 26 14 356 6 20 72 99 118 24 34 37 29 6 360 344 320 311 311 313 311 299 304